QPF
0.02 0.03 0.05 0.06 0.03 0.02 0.02 0.02 0.02 0.02 0.02 0.01 0.01 0.03 0.05 0.09 0.09 0.06 0.05 0.02 0.01 0.01 0.01 0.02 0.04 0.03 0.03 0.04 0.04 0.04 0.04 0.04 0.02 0.02 0.01 0.01 0.00 0.00 0.00 0.00 0.00 0.00 0.01 0.00 0.01 0.01 0.01 0.01 0.02
0.01 0.02 0.03 0.02 0.02 0.02 0.03 0.05 0.05 0.03 0.01 0.00 0.01 0.02 0.04 0.04 0.03 0.04 0.08 0.05 0.02 0.01 0.01 0.03 0.06 0.07 0.07 0.08 0.08 0.07 0.06 0.05 0.03 0.02 0.02 0.01 0.00 0.00 0.00 0.00 0.00 0.00 0.01 0.01 0.01 0.01 0.01 0.01 0.01
0.01 0.02 0.02 0.02 0.03 0.05 0.06 0.06 0.05 0.01 0.00 0.01 0.01 0.02 0.04 0.04 0.05 0.09 0.11 0.06 0.03 0.01 0.02 0.05 0.11 0.11 0.11 0.10 0.10 0.09 0.07 0.05 0.05 0.04 0.03 0.03 0.01 0.00 0.00 0.00 0.00 0.00 0.00 0.00 0.01 0.01 0.01 0.01 0.00
0.01 0.01 0.01 0.03 0.05 0.05 0.06 0.05 0.03 0.01 0.01 0.01 0.01 0.03 0.03 0.04 0.11 0.17 0.12 0.06 0.04 0.04 0.05 0.09 0.13 0.12 0.12 0.11 0.11 0.10 0.07 0.06 0.06 0.05 0.04 0.04 0.02 0.01 0.01 0.00 0.00 0.00 0.00 0.00 0.00 0.01 0.01 0.01 0.01
0.01 0.01 0.02 0.04 0.06 0.05 0.03 0.03 0.02 0.03 0.04 0.01 0.02 0.05 0.06 0.06 0.11 0.17 0.16 0.09 0.07 0.08 0.09 0.10 0.14 0.15 0.14 0.12 0.11 0.11 0.09 0.08 0.07 0.06 0.05 0.05 0.03 0.02 0.01 0.01 0.01 0.01 0.01 0.00 0.00 0.01 0.00 0.01 0.02
0.01 0.01 0.03 0.04 0.06 0.05 0.03 0.03 0.02 0.03 0.04 0.02 0.03 0.07 0.08 0.06 0.11 0.13 0.14 0.14 0.13 0.15 0.13 0.11 0.13 0.16 0.16 0.14 0.14 0.13 0.12 0.11 0.10 0.10 0.09 0.08 0.07 0.05 0.03 0.02 0.02 0.01 0.01 0.01 0.00 0.01 0.01 0.01 0.02
0.02 0.01 0.03 0.03 0.05 0.06 0.03 0.01 0.02 0.02 0.02 0.02 0.03 0.07 0.05 0.05 0.08 0.12 0.13 0.16 0.17 0.19 0.17 0.13 0.13 0.15 0.17 0.16 0.17 0.19 0.17 0.17 0.16 0.16 0.15 0.14 0.12 0.10 0.06 0.05 0.03 0.02 0.01 0.00 0.00 0.01 0.01 0.01 0.02
0.01 0.01 0.03 0.03 0.04 0.06 0.02 0.01 0.01 0.01 0.01 0.01 0.02 0.04 0.03 0.03 0.06 0.10 0.14 0.19 0.22 0.22 0.21 0.21 0.20 0.17 0.16 0.15 0.15 0.20 0.22 0.23 0.22 0.19 0.21 0.21 0.17 0.13 0.10 0.07 0.06 0.05 0.03 0.02 0.00 0.00 0.00 0.02 0.02
0.02 0.02 0.04 0.03 0.04 0.04 0.01 0.01 0.01 0.01 0.01 0.01 0.01 0.01 0.01 0.02 0.03 0.04 0.06 0.09 0.12 0.14 0.16 0.18 0.20 0.21 0.19 0.15 0.13 0.15 0.20 0.25 0.21 0.18 0.24 0.24 0.17 0.13 0.12 0.08 0.09 0.08 0.07 0.06 0.03 0.01 0.01 0.01 0.02
0.02 0.03 0.02 0.01 0.01 0.01 0.01 0.01 0.01 0.01 0.02 0.01 0.00 0.01 0.01 0.02 0.02 0.02 0.02 0.02 0.03 0.05 0.07 0.09 0.11 0.12 0.12 0.11 0.12 0.14 0.16 0.19 0.17 0.12 0.17 0.21 0.21 0.19 0.13 0.09 0.10 0.11 0.13 0.11 0.09 0.06 0.03 0.02 0.02
0.01 0.02 0.01 0.00 0.00 0.00 0.01 0.02 0.01 0.01 0.01 0.01 0.01 0.01 0.02 0.02 0.02 0.02 0.02 0.01 0.01 0.02 0.02 0.02 0.02 0.03 0.04 0.06 0.07 0.08 0.11 0.13 0.13 0.12 0.13 0.16 0.19 0.20 0.20 0.17 0.15 0.14 0.13 0.16 0.17 0.15 0.10 0.06 0.02
0.01 0.00 0.00 0.00 0.00 0.00 0.01 0.01 0.01 0.01 0.01 0.00 0.01 0.00 0.01 0.01 0.01 0.01 0.00 0.00 0.00 0.00 0.00 0.00 0.00 0.00 0.01 0.01 0.02 0.03 0.05 0.06 0.08 0.11 0.12 0.12 0.11 0.14 0.18 0.21 0.23 0.24 0.19 0.23 0.26 0.23 0.17 0.13 0.05
0.01 0.01 0.00 0.00 0.00 0.01 0.00 0.01 0.00 0.00 0.00 0.00 0.00 0.00 0.00 0.00 0.00 0.00 0.00 0.00 0.00 0.00 0.00 0.00 0.00 0.00 0.00 0.00 0.01 0.01 0.01 0.03 0.04 0.06 0.07 0.08 0.07 0.10 0.14 0.16 0.21 0.23 0.23 0.25 0.28 0.26 0.21 0.20 0.11
0.01 0.01 0.01 0.00 0.01 0.00 0.00 0.00 0.00 0.00 0.00 0.00 0.00 0.00 0.00 0.00 0.00 0.00 0.00 0.00 0.00 0.00 0.00 0.00 0.00 0.00 0.00 0.00 0.00 0.00 0.00 0.01 0.01 0.03 0.05 0.06 0.06 0.06 0.11 0.15 0.18 0.20 0.23 0.28 0.27 0.27 0.29 0.25 0.16
0.01 0.00 0.01 0.00 0.00 0.00 0.00 0.00 0.00 0.00 0.00 0.00 0.00 0.00 0.00 0.00 0.00 0.00 0.00 0.00 0.00 0.00 0.00 0.00 0.00 0.00 0.00 0.00 0.00 0.00 0.00 0.00 0.01 0.01 0.02 0.03 0.04 0.06 0.09 0.11 0.12 0.15 0.17 0.21 0.24 0.23 0.26 0.24 0.17
0.01 0.01 0.02 0.01 0.00 0.00 0.00 0.01 0.00 0.00 0.00 0.00 0.00 0.00 0.00 0.00 0.00 0.00 0.00 0.00 0.00 0.00 0.00 0.00 0.00 0.00 0.00 0.00 0.00 0.00 0.00 0.00 0.01 0.01 0.01 0.02 0.03 0.04 0.05 0.06 0.07 0.11 0.13 0.13 0.15 0.19 0.23 0.23 0.19
0.01 0.01 0.01 0.01 0.00 0.00 0.00 0.01 0.00 0.00 0.00 0.00 0.00 0.00 0.00 0.00 0.00 0.00 0.00 0.00 0.00 0.00 0.00 0.00 0.00 0.00 0.00 0.00 0.00 0.00 0.00 0.00 0.01 0.01 0.01 0.01 0.01 0.02 0.03 0.05 0.07 0.08 0.10 0.13 0.13 0.15 0.18 0.24 0.22
0.01 0.00 0.00 0.00 0.00 0.00 0.00 0.00 0.00 0.00 0.00 0.00 0.00 0.00 0.00 0.00 0.00 0.00 0.00 0.00 0.00 0.00 0.00 0.00 0.00 0.00 0.00 0.00 0.00 0.00 0.00 0.00 0.01 0.01 0.01 0.01 0.01 0.01 0.02 0.03 0.03 0.05 0.06 0.10 0.16 0.21 0.23 0.22 0.23
0.00 0.00 0.00 0.00 0.00 0.00 0.00 0.00 0.00 0.00 0.00 0.00 0.00 0.00 0.00 0.00 0.00 0.00 0.00 0.00 0.00 0.00 0.00 0.00 0.00 0.00 0.00 0.00 0.00 0.00 0.00 0.01 0.01 0.00 0.00 0.00 0.01 0.02 0.02 0.02 0.03 0.04 0.05 0.06 0.08 0.13 0.20 0.22 0.21
0.00 0.00 0.00 0.00 0.00 0.00 0.00 0.00 0.00 0.00 0.00 0.00 0.00 0.00 0.00 0.00 0.00 0.00 0.00 0.00 0.00 0.00 0.00 0.00 0.00 0.00 0.00 0.00 0.00 0.00 0.00 0.01 0.01 0.01 0.01 0.01 0.01 0.01 0.01 0.02 0.03 0.04 0.04 0.05 0.06 0.08 0.13 0.18 0.23
0.00 0.00 0.00 0.00 0.00 0.00 0.00 0.00 0.00 0.00 0.00 0.00 0.00 0.00 0.00 0.00 0.00 0.00 0.00 0.00 0.00 0.00 0.00 0.00 0.00 0.00 0.00 0.00 0.00 0.00 0.00 0.00 0.01 0.01 0.01 0.01 0.01 0.02 0.02 0.02 0.03 0.03 0.03 0.04 0.05 0.06 0.10 0.13 0.15
0.00 0.00 0.00 0.00 0.00 0.00 0.00 0.00 0.00 0.00 0.00 0.00 0.00 0.00 0.00 0.00 0.00 0.00 0.00 0.00 0.00 0.00 0.00 0.00 0.00 0.00 0.00 0.00 0.00 0.00 0.00 0.00 0.01 0.01 0.01 0.02 0.01 0.01 0.02 0.02 0.02 0.02 0.02 0.03 0.04 0.04 0.07 0.11 0.14
0.00 0.00 0.00 0.00 0.00 0.00 0.00 0.00 0.00 0.00 0.00 0.00 0.00 0.00 0.00 0.00 0.00 0.00 0.00 0.00 0.00 0.00 0.00 0.00 0.00 0.00 0.00 0.00 0.00 0.00 0.00 0.01 0.01 0.01 0.02 0.02 0.02 0.02 0.02 0.02 0.01 0.01 0.02 0.02 0.02 0.03 0.05 0.08 0.13
0.00 0.00 0.00 0.00 0.00 0.00 0.00 0.00 0.00 0.00 0.00 0.00 0.00 0.00 0.00 0.00 0.00 0.00 0.00 0.00 0.00 0.00 0.00 0.00 0.00 0.00 0.00 0.00 0.00 0.00 0.00 0.00 0.01 0.01 0.02 0.02 0.02 0.02 0.01 0.01 0.01 0.01 0.02 0.02 0.02 0.03 0.04 0.06 0.09
0.00 0.00 0.00 0.00 0.00 0.00 0.00 0.00 0.00 0.00 0.00 0.00 0.00 0.00 0.00 0.00 0.00 0.00 0.00 0.00 0.00 0.00 0.00 0.00 0.00 0.00 0.00 0.00 0.00 0.00 0.00 0.00 0.01 0.00 0.01 0.01 0.01 0.01 0.01 0.01 0.01 0.01 0.01 0.01 0.02 0.03 0.03 0.05 0.07
0.00 0.00 0.00 0.00 0.00 0.00 0.00 0.00 0.00 0.00 0.00 0.00 0.00 0.00 0.00 0.00 0.00 0.00 0.00 0.00 0.00 0.00 0.00 0.00 0.00 0.00 0.00 0.00 0.00 0.00 0.00 0.00 0.00 0.00 0.00 0.00 0.00 0.01 0.01 0.01 0.01 0.01 0.01 0.01 0.02 0.02 0.03 0.05 0.06
0.00 0.00 0.00 0.00 0.00 0.00 0.00 0.00 0.00 0.00 0.00 0.00 0.00 0.00 0.00 0.00 0.00 0.00 0.00 0.00 0.00 0.00 0.00 0.00 0.00 0.00 0.00 0.00 0.00 0.00 0.00 0.00 0.00 0.00 0.00 0.00 0.00 0.00 0.00 0.01 0.01 0.00 0.01 0.01 0.01 0.02 0.03 0.04 0.06
0.00 0.00 0.00 0.00 0.00 0.00 0.00 0.00 0.00 0.00 0.00 0.00 0.00 0.00 0.00 0.00 0.00 0.00 0.00 0.00 0.00 0.00 0.00 0.00 0.00 0.00 0.00 0.00 0.00 0.00 0.00 0.00 0.00 0.00 0.00 0.00 0.00 0.00 0.00 0.00 0.00 0.01 0.01 0.01 0.01 0.02 0.03 0.04 0.06
0.00 0.00 0.00 0.00 0.00 0.00 0.00 0.00 0.00 0.00 0.00 0.00 0.00 0.00 0.00 0.00 0.00 0.00 0.00 0.00 0.00 0.00 0.00 0.00 0.00 0.00 0.00 0.00 0.00 0.00 0.00 0.00 0.00 0.00 0.00 0.00 0.00 0.00 0.00 0.00 0.00 0.00 0.01 0.01 0.01 0.02 0.02 0.04 0.06
0.00 0.00 0.00 0.00 0.00 0.00 0.00 0.00 0.00 0.00 0.00 0.00 0.00 0.00 0.00 0.00 0.00 0.00 0.00 0.00 0.00 0.00 0.00 0.00 0.00 0.00 0.00 0.00 0.00 0.00 0.00 0.00 0.00 0.00 0.00 0.00 0.00 0.00 0.00 0.00 0.00 0.00 0.00 0.00 0.01 0.01 0.02 0.04 0.05
MSLP
1013.56 1014.35 1015.24 1016.12 1016.86 1017.35 1017.53 1017.43 1017.11 1016.69 1016.32 1016.08 1016.03 1016.14 1016.35 1016.56 1016.64 1016.55 1016.28 1015.86 1015.40 1015.01 1014.77 1014.73 1014.90 1015.19 1015.52 1015.80 1015.96 1015.98 1015.88 1015.73 1015.61 1015.56 1015.63 1015.79 1016.00 1016.20 1016.33 1016.36 1016.29 1016.16 1016.02 1015.91 1015.86 1015.88 1015.95 1016.00 1016.01
1013.90 1014.78 1015.73 1016.61 1017.30 1017.70 1017.77 1017.56 1017.14 1016.65 1016.24 1015.99 1015.94 1016.07 1016.31 1016.53 1016.64 1016.56 1016.30 1015.91 1015.47 1015.09 1014.87 1014.85 1015.01 1015.30 1015.62 1015.88 1016.03 1016.04 1015.95 1015.82 1015.70 1015.67 1015.73 1015.87 1016.04 1016.20 1016.28 1016.26 1016.16 1016.02 1015.89 1015.82 1015.81 1015.88 1015.99 1016.07 1016.09
1014.26 1015.20 1016.17 1017.02 1017.64 1017.96 1017.95 1017.65 1017.19 1016.67 1016.25 1016.02 1015.99 1016.14 1016.39 1016.62 1016.74 1016.67 1016.42 1016.04 1015.63 1015.28 1015.08 1015.07 1015.23 1015.50 1015.79 1016.02 1016.14 1016.14 1016.04 1015.90 1015.78 1015.74 1015.78 1015.89 1016.02 1016.12 1016.16 1016.12 1016.01 1015.88 1015.77 1015.74 1015.79 1015.90 1016.04 1016.16 1016.19
1014.61 1015.57 1016.52 1017.31 1017.87 1018.11 1018.04 1017.72 1017.25 1016.76 1016.38 1016.19 1016.21 1016.39 1016.64 1016.87 1016.97 1016.90 1016.65 1016.29 1015.90 1015.58 1015.40 1015.40 1015.55 1015.80 1016.05 1016.24 1016.31 1016.27 1016.14 1015.98 1015.84 1015.77 1015.78 1015.85 1015.94 1016.00 1016.01 1015.95 1015.85 1015.75 1015.68 1015.70 1015.80 1015.95 1016.12 1016.25 1016.29
1014.91 1015.86 1016.75 1017.47 1017.95 1018.14 1018.04 1017.74 1017.32 1016.91 1016.61 1016.50 1016.57 1016.78 1017.04 1017.26 1017.34 1017.25 1017.00 1016.65 1016.28 1015.98 1015.82 1015.81 1015.95 1016.16 1016.36 1016.49 1016.51 1016.42 1016.24 1016.03 1015.86 1015.75 1015.71 1015.74 1015.80 1015.83 1015.83 1015.78 1015.71 1015.64 1015.63 1015.70 1015.83 1016.02 1016.20 1016.33 1016.36
1015.17 1016.06 1016.87 1017.51 1017.91 1018.06 1017.97 1017.71 1017.38 1017.08 1016.91 1016.90 1017.04 1017.29 1017.56 1017.76 1017.81 1017.69 1017.43 1017.07 1016.71 1016.43 1016.27 1016.26 1016.37 1016.53 1016.68 1016.74 1016.70 1016.54 1016.31 1016.05 1015.83 1015.67 1015.59 1015.58 1015.60 1015.62 1015.62 1015.59 1015.56 1015.55 1015.59 1015.69 1015.86 1016.05 1016.23 1016.35 1016.36
1015.39 1016.20 1016.91 1017.45 1017.79 1017.90 1017.84 1017.66 1017.44 1017.28 1017.23 1017.33 1017.55 1017.83 1018.10 1018.28 1018.30 1018.16 1017.87 1017.51 1017.15 1016.87 1016.71 1016.68 1016.75 1016.87 1016.95 1016.95 1016.84 1016.62 1016.33 1016.02 1015.74 1015.54 1015.41 1015.36 1015.35 1015.36 1015.37 1015.37 1015.38 1015.42 1015.50 1015.64 1015.82 1016.01 1016.17 1016.25 1016.23
1015.61 1016.33 1016.93 1017.37 1017.64 1017.73 1017.70 1017.60 1017.49 1017.46 1017.54 1017.74 1018.03 1018.34 1018.60 1018.75 1018.74 1018.56 1018.26 1017.89 1017.53 1017.24 1017.07 1017.02 1017.05 1017.11 1017.14 1017.08 1016.90 1016.63 1016.29 1015.93 1015.60 1015.35 1015.18 1015.08 1015.05 1015.05 1015.07 1015.09 1015.14 1015.22 1015.34 1015.50 1015.68 1015.85 1015.98 1016.02 1015.97
1015.83 1016.46 1016.96 1017.31 1017.52 1017.60 1017.59 1017.56 1017.56 1017.64 1017.82 1018.10 1018.43 1018.75 1019.00 1019.12 1019.08 1018.87 1018.55 1018.18 1017.82 1017.53 1017.34 1017.26 1017.25 1017.26 1017.23 1017.11 1016.88 1016.56 1016.18 1015.77 1015.40 1015.10 1014.89 1014.76 1014.70 1014.68 1014.70 1014.75 1014.82 1014.93 1015.08 1015.25 1015.43 1015.59 1015.68 1015.69 1015.61
1016.07 1016.62 1017.03 1017.31 1017.47 1017.54 1017.56 1017.59 1017.67 1017.83 1018.07 1018.39 1018.73 1019.04 1019.26 1019.35 1019.28 1019.06 1018.74 1018.36 1018.01 1017.72 1017.52 1017.41 1017.36 1017.32 1017.23 1017.06 1016.79 1016.43 1016.00 1015.57 1015.16 1014.82 1014.57 1014.40 1014.30 1014.27 1014.28 1014.33 1014.43 1014.56 1014.72 1014.91 1015.09 1015.24 1015.32 1015.31 1015.21
1016.30 1016.79 1017.14 1017.37 1017.51 1017.58 1017.64 1017.71 1017.83 1018.03 1018.30 1018.61 1018.93 1019.21 1019.39 1019.45 1019.36 1019.14 1018.82 1018.47 1018.12 1017.84 1017.63 1017.50 1017.41 1017.31 1017.17 1016.95 1016.64 1016.25 1015.80 1015.33 1014.89 1014.52 1014.23 1014.02 1013.89 1013.83 1013.83 1013.88 1013.98 1014.13 1014.31 1014.52 1014.71 1014.87 1014.95 1014.95 1014.86
1016.50 1016.96 1017.28 1017.50 1017.63 1017.72 1017.80 1017.90 1018.05 1018.25 1018.51 1018.79 1019.06 1019.29 1019.43 1019.45 1019.35 1019.13 1018.84 1018.51 1018.20 1017.92 1017.71 1017.55 1017.42 1017.27 1017.08 1016.82 1016.47 1016.04 1015.57 1015.08 1014.62 1014.22 1013.89 1013.64 1013.48 1013.40 1013.38 1013.43 1013.53 1013.69 1013.90 1014.12 1014.34 1014.53 1014.65 1014.68 1014.63
1016.64 1017.10 1017.42 1017.65 1017.81 1017.93 1018.04 1018.17 1018.32 1018.51 1018.72 1018.95 1019.15 1019.32 1019.41 1019.40 1019.29 1019.10 1018.84 1018.55 1018.26 1018.00 1017.78 1017.59 1017.42 1017.23 1016.99 1016.68 1016.30 1015.85 1015.35 1014.85 1014.37 1013.94 1013.58 1013.31 1013.12 1013.01 1012.98 1013.01 1013.12 1013.29 1013.51 1013.76 1014.02 1014.25 1014.43 1014.52 1014.53
1016.72 1017.18 1017.53 1017.79 1018.00 1018.16 1018.31 1018.46 1018.61 1018.77 1018.93 1019.08 1019.22 1019.32 1019.37 1019.34 1019.24 1019.07 1018.84 1018.59 1018.33 1018.08 1017.85 1017.64 1017.43 1017.19 1016.91 1016.56 1016.15 1015.68 1015.17 1014.65 1014.16 1013.72 1013.34 1013.04 1012.83 1012.70 1012.65 1012.67 1012.78 1012.95 1013.19 1013.46 1013.76 1014.05 1014.29 1014.46 1014.54
1016.75 1017.22 1017.60 1017.91 1018.16 1018.38 1018.57 1018.74 1018.88 1019.00 1019.11 1019.20 1019.28 1019.32 1019.33 1019.30 1019.20 1019.06 1018.87 1018.65 1018.41 1018.17 1017.93 1017.69 1017.44 1017.17 1016.85 1016.47 1016.04 1015.56 1015.04 1014.52 1014.02 1013.57 1013.18 1012.87 1012.64 1012.48 1012.41 1012.42 1012.51 1012.68 1012.92 1013.21 1013.53 1013.87 1014.17 1014.42 1014.58
1016.77 1017.24 1017.64 1017.99 1018.30 1018.56 1018.78 1018.96 1019.09 1019.18 1019.24 1019.28 1019.31 1019.32 1019.31 1019.27 1019.19 1019.07 1018.91 1018.72 1018.49 1018.25 1017.99 1017.73 1017.45 1017.14 1016.80 1016.41 1015.97 1015.49 1014.99 1014.47 1013.97 1013.51 1013.12 1012.79 1012.54 1012.37 1012.27 1012.26 1012.33 1012.47 1012.68 1012.97 1013.30 1013.66 1014.01 1014.32 1014.56
1016.83 1017.28 1017.69 1018.06 1018.40 1018.69 1018.92 1019.10 1019.22 1019.28 1019.30 1019.30 1019.29 1019.28 1019.27 1019.24 1019.18 1019.09 1018.95 1018.77 1018.55 1018.29 1018.02 1017.73 1017.43 1017.11 1016.77 1016.38 1015.96 1015.49 1015.00 1014.50 1014.01 1013.55 1013.15 1012.81 1012.54 1012.35 1012.23 1012.18 1012.20 1012.30 1012.48 1012.72 1013.03 1013.38 1013.75 1014.10 1014.40
1016.96 1017.38 1017.77 1018.14 1018.48 1018.77 1019.00 1019.16 1019.24 1019.27 1019.26 1019.23 1019.21 1019.20 1019.19 1019.19 1019.16 1019.09 1018.97 1018.79 1018.56 1018.29 1018.00 1017.70 1017.39 1017.07 1016.74 1016.38 1015.99 1015.56 1015.10 1014.62 1014.14 1013.69 1013.28 1012.92 1012.64 1012.41 1012.26 1012.17 1012.14 1012.18 1012.28 1012.46 1012.70 1013.01 1013.36 1013.72 1014.07
1017.20 1017.56 1017.92 1018.26 1018.57 1018.83 1019.02 1019.13 1019.17 1019.16 1019.11 1019.06 1019.04 1019.04 1019.06 1019.09 1019.09 1019.05 1018.94 1018.76 1018.52 1018.24 1017.94 1017.62 1017.32 1017.03 1016.73 1016.42 1016.08 1015.69 1015.28 1014.82 1014.36 1013.91 1013.49 1013.12 1012.81 1012.56 1012.36 1012.23 1012.14 1012.10 1012.12 1012.20 1012.35 1012.57 1012.87 1013.21 1013.56
1017.51 1017.83 1018.14 1018.44 1018.70 1018.90 1019.02 1019.06 1019.04 1018.96 1018.87 1018.81 1018.79 1018.81 1018.87 1018.94 1018.98 1018.97 1018.87 1018.70 1018.45 1018.16 1017.84 1017.53 1017.25 1016.99 1016.74 1016.48 1016.20 1015.88 1015.51 1015.09 1014.64 1014.19 1013.76 1013.37 1013.03 1012.75 1012.53 1012.34 1012.19 1012.08 1012.00 1011.98 1012.02 1012.14 1012.35 1012.63 1012.96
1017.88 1018.16 1018.43 1018.68 1018.87 1018.99 1019.03 1018.97 1018.85 1018.71 1018.57 1018.48 1018.46 1018.51 1018.61 1018.73 1018.82 1018.84 1018.77 1018.61 1018.36 1018.06 1017.75 1017.45 1017.19 1016.97 1016.77 1016.58 1016.37 1016.10 1015.78 1015.39 1014.96 1014.50 1014.06 1013.65 1013.30 1012.99 1012.73 1012.51 1012.31 1012.13 1011.97 1011.84 1011.77 1011.77 1011.87 1012.07 1012.35
1018.25 1018.52 1018.76 1018.96 1019.09 1019.12 1019.05 1018.89 1018.67 1018.43 1018.24 1018.12 1018.09 1018.17 1018.31 1018.48 1018.62 1018.69 1018.65 1018.51 1018.27 1017.98 1017.67 1017.39 1017.15 1016.97 1016.83 1016.70 1016.54 1016.33 1016.05 1015.69 1015.27 1014.81 1014.36 1013.94 1013.56 1013.24 1012.97 1012.73 1012.49 1012.27 1012.04 1011.82 1011.65 1011.54 1011.52 1011.62 1011.82
1018.58 1018.85 1019.09 1019.26 1019.33 1019.28 1019.10 1018.83 1018.50 1018.17 1017.90 1017.74 1017.72 1017.81 1017.99 1018.21 1018.41 1018.52 1018.52 1018.41 1018.19 1017.91 1017.62 1017.35 1017.14 1016.99 1016.89 1016.81 1016.70 1016.53 1016.28 1015.94 1015.53 1015.08 1014.63 1014.20 1013.81 1013.49 1013.21 1012.96 1012.72 1012.46 1012.19 1011.92 1011.66 1011.45 1011.32 1011.31 1011.41
1018.82 1019.13 1019.38 1019.54 1019.57 1019.45 1019.18 1018.80 1018.36 1017.94 1017.60 1017.40 1017.35 1017.45 1017.67 1017.93 1018.18 1018.35 1018.39 1018.31 1018.12 1017.86 1017.58 1017.32 1017.13 1017.00 1016.93 1016.88 1016.80 1016.67 1016.44 1016.13 1015.73 1015.29 1014.83 1014.40 1014.02 1013.70 1013.43 1013.19 1012.95 1012.69 1012.40 1012.08 1011.76 1011.48 1011.25 1011.14 1011.13
1018.98 1019.34 1019.62 1019.78 1019.78 1019.61 1019.26 1018.79 1018.26 1017.75 1017.34 1017.08 1017.01 1017.12 1017.35 1017.65 1017.94 1018.16 1018.24 1018.20 1018.04 1017.80 1017.53 1017.29 1017.10 1016.98 1016.92 1016.89 1016.83 1016.72 1016.52 1016.22 1015.84 1015.41 1014.96 1014.54 1014.17 1013.86 1013.60 1013.37 1013.14 1012.89 1012.60 1012.27 1011.92 1011.57 1011.27 1011.05 1010.95
1019.06 1019.47 1019.79 1019.96 1019.95 1019.73 1019.33 1018.78 1018.18 1017.60 1017.12 1016.82 1016.72 1016.81 1017.06 1017.37 1017.69 1017.94 1018.07 1018.05 1017.92 1017.70 1017.44 1017.20 1017.02 1016.90 1016.84 1016.81 1016.76 1016.67 1016.49 1016.21 1015.86 1015.45 1015.02 1014.61 1014.26 1013.96 1013.71 1013.49 1013.28 1013.04 1012.75 1012.42 1012.04 1011.66 1011.30 1011.00 1010.80
1019.09 1019.54 1019.88 1020.06 1020.04 1019.79 1019.35 1018.76 1018.10 1017.46 1016.94 1016.60 1016.47 1016.54 1016.77 1017.09 1017.42 1017.69 1017.84 1017.85 1017.73 1017.53 1017.28 1017.04 1016.86 1016.73 1016.67 1016.64 1016.60 1016.52 1016.37 1016.13 1015.80 1015.43 1015.03 1014.64 1014.30 1014.01 1013.76 1013.55 1013.34 1013.10 1012.82 1012.48 1012.09 1011.68 1011.28 1010.93 1010.65
1019.08 1019.54 1019.89 1020.07 1020.03 1019.77 1019.31 1018.69 1018.00 1017.34 1016.79 1016.41 1016.25 1016.30 1016.50 1016.80 1017.12 1017.38 1017.54 1017.56 1017.46 1017.27 1017.04 1016.80 1016.62 1016.49 1016.43 1016.40 1016.38 1016.32 1016.20 1015.99 1015.71 1015.37 1015.01 1014.65 1014.32 1014.03 1013.78 1013.56 1013.34 1013.09 1012.80 1012.45 1012.06 1011.63 1011.20 1010.80 1010.46
1019.05 1019.49 1019.82 1019.97 1019.92 1019.65 1019.17 1018.55 1017.86 1017.19 1016.63 1016.24 1016.05 1016.06 1016.23 1016.50 1016.79 1017.03 1017.17 1017.20 1017.11 1016.93 1016.71 1016.48 1016.31 1016.19 1016.13 1016.12 1016.11 1016.08 1016.00 1015.84 1015.61 1015.32 1015.00 1014.67 1014.35 1014.06 1013.80 1013.55 1013.31 1013.04 1012.72 1012.36 1011.95 1011.52 1011.07 1010.64 1010.25
1018.97 1019.36 1019.65 1019.77 1019.69 1019.40 1018.93 1018.32 1017.65 1017.00 1016.45 1016.06 1015.86 1015.84 1015.96 1016.18 1016.43 1016.63 1016.76 1016.77 1016.68 1016.52 1016.31 1016.12 1015.96 1015.86 1015.82 1015.82 1015.85 1015.85 1015.81 1015.71 1015.53 1015.29 1015.01 1014.71 1014.40 1014.11 1013.83 1013.56 1013.28 1012.98 1012.64 1012.26 1011.84 1011.38 1010.92 1010.48 1010.07
Thickness
5814 5814 5813 5804 5791 5785 5772 5776 5785 5784 5788 5795 5796 5792 5784 5776 5769 5762 5779 5787 5788 5786 5783 5776 5773 5771 5770 5769 5768 5767 5767 5766 5765 5764 5763 5762 5761 5760 5759 5759 5758 5758 5757 5757 5757 5757 5758 5759 5760
5818 5815 5808 5799 5787 5772 5767 5777 5780 5782 5790 5797 5795 5792 5785 5776 5778 5778 5780 5782 5784 5783 5780 5776 5770 5769 5768 5767 5767 5766 5766 5765 5764 5763 5762 5761 5760 5759 5759 5758 5758 5757 5757 5756 5756 5755 5756 5756 5757
5818 5814 5802 5794 5781 5771 5768 5778 5782 5789 5794 5794 5789 5787 5778 5767 5772 5773 5777 5780 5780 5778 5776 5772 5767 5765 5765 5764 5764 5764 5764 5764 5763 5762 5761 5760 5760 5759 5758 5757 5757 5757 5756 5756 5755 5755 5754 5755 5755
5814 5806 5802 5790 5773 5775 5777 5781 5787 5787 5788 5790 5788 5776 5771 5767 5767 5771 5775 5776 5775 5773 5770 5766 5762 5761 5761 5761 5761 5761 5761 5761 5761 5761 5760 5760 5759 5758 5757 5757 5757 5756 5756 5755 5755 5754 5754 5753 5754
5811 5802 5789 5777 5773 5777 5782 5785 5788 5782 5779 5782 5783 5769 5760 5764 5769 5769 5770 5770 5769 5766 5763 5761 5757 5756 5756 5756 5756 5757 5757 5758 5758 5758 5758 5758 5758 5758 5757 5757 5756 5756 5755 5755 5754 5754 5753 5753 5753
5802 5799 5781 5771 5773 5777 5781 5784 5784 5779 5776 5776 5774 5765 5752 5760 5762 5762 5763 5760 5759 5757 5755 5754 5752 5751 5751 5751 5751 5752 5753 5754 5755 5755 5755 5756 5756 5756 5756 5756 5756 5755 5755 5755 5754 5754 5753 5753 5752
5796 5791 5779 5777 5772 5771 5776 5781 5776 5773 5769 5767 5770 5758 5751 5754 5756 5757 5756 5754 5752 5750 5748 5748 5747 5747 5746 5746 5746 5747 5748 5749 5750 5751 5752 5752 5753 5754 5755 5755 5755 5755 5755 5754 5754 5754 5753 5753 5752
5803 5792 5778 5775 5770 5768 5775 5775 5771 5768 5762 5766 5766 5752 5743 5746 5751 5751 5750 5749 5748 5746 5744 5743 5743 5742 5742 5742 5742 5743 5743 5745 5746 5748 5749 5750 5750 5751 5752 5754 5754 5754 5754 5754 5754 5754 5754 5753 5753
5803 5785 5772 5773 5771 5770 5773 5769 5766 5767 5761 5757 5755 5749 5745 5746 5747 5745 5743 5742 5740 5740 5740 5739 5738 5737 5737 5738 5738 5739 5739 5741 5743 5745 5746 5747 5749 5751 5751 5753 5753 5753 5753 5754 5754 5754 5754 5754 5754
5794 5778 5775 5777 5779 5773 5768 5766 5761 5757 5750 5745 5743 5742 5743 5741 5739 5735 5733 5731 5731 5731 5732 5732 5731 5732 5732 5733 5734 5735 5736 5738 5740 5741 5743 5744 5746 5748 5749 5751 5751 5752 5752 5752 5753 5753 5753 5754 5759
5790 5778 5775 5774 5775 5773 5764 5759 5758 5751 5740 5739 5735 5733 5734 5732 5730 5727 5725 5723 5722 5724 5723 5724 5725 5725 5726 5727 5728 5730 5732 5734 5737 5738 5739 5741 5742 5744 5746 5748 5749 5750 5751 5752 5753 5753 5755 5759 5762
5781 5774 5775 5770 5768 5765 5760 5754 5748 5744 5738 5740 5735 5731 5728 5724 5721 5719 5716 5715 5715 5714 5714 5715 5716 5718 5718 5719 5721 5723 5726 5729 5732 5734 5736 5738 5740 5742 5745 5746 5747 5747 5749 5750 5752 5753 5755 5758 5762
5776 5767 5766 5766 5762 5759 5754 5747 5741 5734 5734 5733 5728 5723 5719 5717 5715 5713 5712 5710 5709 5706 5706 5706 5706 5708 5710 5711 5712 5717 5719 5722 5725 5727 5730 5733 5737 5740 5742 5744 5744 5744 5745 5746 5748 5750 5753 5754 5757
5772 5767 5761 5759 5756 5753 5745 5739 5736 5728 5729 5725 5720 5717 5714 5710 5707 5706 5705 5702 5702 5700 5700 5699 5699 5700 5701 5704 5707 5710 5712 5715 5718 5721 5724 5727 5731 5734 5737 5740 5742 5743 5742 5743 5745 5747 5749 5749 5750
5770 5759 5753 5753 5752 5747 5742 5731 5729 5728 5725 5718 5715 5712 5707 5706 5703 5700 5698 5696 5696 5694 5694 5692 5692 5693 5694 5696 5698 5701 5704 5708 5711 5715 5718 5721 5724 5728 5731 5735 5738 5740 5741 5741 5742 5745 5745 5745 5745
5764 5755 5746 5747 5747 5742 5733 5727 5727 5725 5720 5714 5711 5709 5703 5700 5700 5698 5696 5693 5692 5689 5688 5687 5687 5686 5687 5688 5690 5694 5697 5701 5704 5708 5711 5714 5718 5722 5725 5728 5732 5735 5737 5738 5739 5740 5740 5741 5742
5755 5748 5746 5743 5744 5739 5731 5726 5723 5722 5716 5711 5709 5707 5703 5700 5698 5696 5693 5690 5687 5685 5683 5683 5682 5680 5681 5682 5684 5687 5691 5693 5697 5700 5703 5705 5710 5714 5718 5722 5725 5729 5731 5734 5736 5738 5738 5738 5738
5750 5750 5746 5741 5741 5734 5727 5726 5723 5718 5714 5711 5708 5704 5701 5698 5695 5694 5690 5687 5685 5683 5681 5680 5678 5677 5677 5678 5680 5682 5685 5688 5690 5692 5694 5696 5700 5705 5709 5713 5718 5722 5724 5727 5730 5732 5733 5734 5735
5757 5749 5742 5738 5736 5728 5725 5724 5724 5717 5711 5708 5706 5703 5700 5697 5697 5693 5690 5688 5685 5682 5680 5678 5676 5674 5673 5672 5673 5674 5677 5680 5682 5684 5685 5688 5692 5696 5701 5705 5710 5713 5716 5720 5725 5727 5727 5729 5731
5750 5743 5737 5730 5728 5725 5723 5721 5725 5718 5712 5710 5708 5705 5700 5697 5695 5692 5690 5688 5683 5680 5678 5678 5674 5672 5670 5668 5669 5669 5670 5673 5675 5676 5679 5681 5685 5688 5693 5697 5701 5705 5707 5712 5716 5719 5720 5723 5726
5740 5737 5732 5725 5721 5720 5716 5719 5719 5718 5715 5712 5708 5706 5704 5697 5694 5691 5689 5685 5683 5680 5678 5675 5672 5670 5668 5667 5666 5666 5666 5668 5670 5670 5672 5674 5677 5681 5684 5689 5694 5697 5701 5704 5708 5712 5713 5716 5720
5731 5731 5727 5721 5717 5718 5711 5709 5720 5719 5713 5710 5709 5706 5703 5699 5695 5691 5688 5686 5684 5681 5678 5675 5673 5670 5666 5665 5663 5661 5660 5660 5662 5664 5666 5669 5671 5674 5676 5681 5686 5690 5694 5697 5701 5707 5708 5710 5712
5730 5729 5725 5720 5717 5715 5714 5709 5722 5717 5714 5715 5714 5710 5705 5701 5696 5692 5689 5686 5683 5681 5677 5674 5671 5668 5665 5663 5661 5660 5659 5659 5660 5661 5663 5665 5667 5668 5670 5673 5678 5682 5686 5690 5694 5698 5701 5704 5706
5728 5725 5721 5719 5718 5708 5713 5708 5713 5723 5719 5717 5716 5712 5707 5703 5698 5694 5691 5687 5684 5682 5678 5674 5670 5667 5664 5662 5661 5659 5657 5657 5657 5658 5658 5661 5663 5664 5666 5668 5671 5675 5678 5682 5686 5690 5694 5697 5701
5727 5721 5713 5711 5709 5712 5712 5707 5717 5727 5724 5719 5716 5714 5710 5705 5700 5696 5692 5688 5685 5682 5678 5675 5672 5668 5665 5663 5661 5659 5657 5657 5656 5655 5656 5656 5659 5660 5661 5663 5666 5668 5671 5675 5679 5683 5687 5690 5693
5724 5724 5711 5706 5708 5714 5710 5711 5727 5729 5726 5723 5720 5716 5712 5706 5702 5697 5694 5690 5687 5684 5680 5677 5673 5670 5667 5664 5662 5660 5658 5657 5656 5654 5654 5655 5655 5656 5656 5658 5660 5663 5665 5669 5672 5676 5680 5684 5687
5722 5721 5722 5717 5712 5709 5720 5723 5731 5729 5726 5722 5719 5715 5711 5708 5703 5700 5697 5694 5691 5687 5683 5680 5676 5674 5670 5667 5664 5662 5659 5657 5655 5654 5654 5654 5654 5653 5654 5655 5657 5658 5660 5662 5665 5669 5672 5676 5679
5725 5722 5716 5712 5706 5709 5714 5717 5722 5726 5726 5724 5720 5716 5714 5711 5707 5704 5701 5697 5694 5691 5687 5685 5681 5677 5674 5670 5667 5663 5660 5658 5655 5655 5653 5652 5652 5651 5651 5653 5654 5655 5656 5658 5659 5661 5664 5667 5671
5714 5713 5714 5715 5711 5705 5705 5718 5733 5729 5728 5726 5725 5722 5718 5714 5710 5707 5704 5702 5699 5696 5692 5689 5686 5682 5677 5673 5670 5666 5663 5660 5658 5655 5653 5652 5652 5651 5650 5650 5650 5651 5651 5652 5653 5654 5656 5659 5663
5722 5720 5717 5711 5712 5708 5706 5718 5738 5733 5731 5728 5726 5725 5722 5717 5714 5710 5707 5705 5703 5700 5697 5694 5690 5686 5681 5677 5673 5669 5666 5662 5660 5658 5655 5653 5651 5650 5649 5647 5647 5647 5646 5646 5646 5646 5648 5650 5653